Regional Weather Roundup
Issued by NWS San Angelo, TX

Home | Current Version | Previous Version | Text Only | Print | Product List | Glossary On
Versions: 1 2 3 4 5 6 7 8 9 10 11 12 13 14 15 16 17 18 19 20 21 22 23 24 25 26 27 28 29 30 31 32 33 34 35 36 37 38 39 40 41 42 43 44 45 46 47 48 49 50
000
ASUS44 KSJT 240310
RWRSJT
WEST CENTRAL TEXAS REGIONAL WEATHER ROUNDUP
NATIONAL WEATHER SERVICE SAN ANGELO TX
1000 PM CDT SUN JUL 23 2017

NOTE: "FAIR" INDICATES FEW OR NO CLOUDS BELOW 12,000 FEET WITH NO
SIGNIFICANT WEATHER AND/OR OBSTRUCTIONS TO VISIBILITY.

TXZ049-054-064>066-071>073-076>078-098-099-113-114-127-128-139-140-
154-155-168>170-240400
...LOCATIONS ACROSS WEST CENTRAL TEXAS...

CITY           SKY/WX    TMP DP  RH WIND       PRES   REMARKS
SAN ANGELO     CLOUDY    79  65  62 S3        29.96S
ABILENE        MOCLDY    81  67  62 S8        29.95R
DYESS AFB      CLOUDY    81  66  60 S12       29.94R
JUNCTION       PTCLDY    76  70  82 W6        29.97S
SWEETWATER     PTCLDY    80  66  61 S12       30.00R
BROWNWOOD      PTCLDY    77  66  69 S3        29.95R
COLEMAN        CLOUDY    77  67  72 SW7       29.97R
SONORA         CLOUDY    73  70  88 CALM      30.02F
OZONA          FAIR      72  64  78 S7        30.02F
BRADY          NOT AVBL
$$

TEXAS PANHANDLE/OKLAHOMA PANHANDLE

CITY           SKY/WX    TMP DP  RH WIND       PRES   REMARKS
AMARILLO       CLEAR     79  62  56 SE6       30.05R
BORGER         CLEAR     83  64  52 SE8       30.01R
CANADIAN       CLEAR     82  67  59 E6        29.98R
DALHART        MOCLDY    80  62  54 E8        30.08R
DUMAS          PTCLDY    79  61  53 SE7       30.07R
GUYMON         NOT AVBL
HEREFORD       CLEAR     77  64  62 S7        30.06R
PAMPA          CLOUDY    80  64  57 E8        30.05R
PERRYTON       CLEAR     84  64  49 E9        30.02R
$$

SOUTHERN PANHANDLE/SOUTH PLAINS/ROLLING PLAINS

CITY           SKY/WX    TMP DP  RH WIND       PRES   REMARKS
LUBBOCK        MOCLDY    79  67  66 E6        30.01R
SNYDER         PTCLDY    80  66  61 S9        29.98R
CHILDRESS      CLOUDY    83  66  56 E6        29.94R
SEMINOLE       MOCLDY    78  65  66 S3        30.04R
$$

PERMIAN BASIN

CITY           SKY/WX    TMP DP  RH WIND       PRES   REMARKS
MIDLAND        CLOUDY    82  63  52 SW7       30.00S
ODESSA         CLOUDY    82  64  54 S8        30.01S
WINK           CLOUDY    80  66  62 CALM      29.98R
$$

FAR WEST/SOUTHWEST MOUNTAINS/TRANS PECOS

CITY           SKY/WX    TMP DP  RH WIND       PRES   REMARKS
ALPINE         CLOUDY    68  66  92 CALM      30.18R
DRYDEN           N/A     79  65  62 E12       29.98R
EL PASO        TSTM      73  71  93 NE6       30.06R
FORT STOCKTON  MOCLDY    80  65  59 SW8       30.01R
GUADALUPE PASS MOCLDY    71  60  68 NE13      30.18R
MARFA          CLOUDY    67  64  90 N5        30.16R
PECOS          CLOUDY    79  60  52 S6        29.99R
$$

DALLAS/FORT WORTH METROPLEX

CITY           SKY/WX    TMP DP  RH WIND       PRES   REMARKS
DFW AIRPORT    CLOUDY    91  70  49 S9        29.84R
FTW MEACHAM    MOCLDY    91  72  53 S13       29.84S
DAL-EXECUTIVE  CLEAR     87  71  58 S6        29.88R
GRAND PRAIRIE  PTCLDY    88  68  50 S6        29.88R
ADDISON        CLEAR     91  68  46 E9        29.88R
MESQUITE       PTCLDY    84  71  63 CALM      29.89R
LANCASTER      CLEAR     84  72  65 CALM      29.89R
$$

NORTH CENTRAL TEXAS

CITY           SKY/WX    TMP DP  RH WIND       PRES   REMARKS
SHRMAN/DENISON TSTM      71  70  96 E24G35    29.98R
GAINESVILLE    LGT RAIN  78  66  66 E17G26    29.96R
BRIDGEPORT     PTCLDY    84  68  59 S5        29.87F
DENTON         CLOUDY    86  70  58 NE20G29   29.85R
WAXAHACHIE     CLEAR     82  73  72 SE5       29.90R
GRANBURY       PTCLDY    86  67  53 S7        29.88S
$$

WESTERN NORTH TEXAS

CITY           SKY/WX    TMP DP  RH WIND       PRES   REMARKS
WICHITA FALLS  CLOUDY    77  71  82 N23G33    29.94R THUNDER
VERNON         CLOUDY    76  68  75 NE12      30.02R THUNDER
BRECKENRIDGE   PTCLDY    82  64  55 S6        29.92S
COMANCHE       CLOUDY    80  67  63 SW9       29.93S
$$

CENTRAL AND SOUTH CENTRAL TEXAS

CITY           SKY/WX    TMP DP  RH WIND       PRES   REMARKS
AUSTIN/BERGSTM CLOUDY    83  71  67 NE3       29.90R
WACO           PTCLDY    85  71  63 SW6       29.89R
HILLSBORO      NOT AVBL
TEMPLE         CLOUDY    82  72  71 CALM      29.90R
KILLEEN-GRAY   CLOUDY    79  68  69 SW3       29.90S
FORT HOOD      MOCLDY    79  71  75 S5        29.88R
GEORGETOWN     CLEAR     82  68  61 W5        29.91R
LAGO VISTA     FAIR      78  67  70 CALM      29.94R
SAN MARCOS     CLOUDY    81  64  57 CALM      29.92R
NEW BRAUNFELS  PTCLDY    80  69  69 CALM      29.90R
RANDOLPH AFB   CLOUDY    81  65  59 CALM      29.91R
SAN ANTONIO    CLOUDY    83  64  52 E6        29.91R
STINSON        MOCLDY    87  66  49 E7        29.88R
PLEASANTON     NOT AVBL
LA GRANGE      CLEAR     86  75  70 S9        29.88R
GIDDINGS       PTCLDY    86  71  61 S9        29.91R
$$

EAST TEXAS

CITY           SKY/WX    TMP DP  RH WIND       PRES   REMARKS
PARIS            N/A     70  68  93 N5        29.94S
CLARKSVILLE    NOT AVBL
TYLER          CLOUDY    77  72  84 S6        29.90S
LONGVIEW       PTCLDY    75  71  87 SW5       29.89R
PALESTINE      CLOUDY    80  72  77 SE6       29.91R
NACOGDOCHES    CLOUDY    75  73  94 S6        29.87F
$$

TEXAS HILL COUNTRY AND EDWARDS PLATEAU

CITY           SKY/WX    TMP DP  RH WIND       PRES   REMARKS
LLANO          CLOUDY    73  72  94 CALM      29.97R
HORSESHOE BAY  FAIR      74  69  86 CALM      29.93R
KERRVILLE      CLOUDY    73  71  95 CALM      29.95R
FREDERICKSBRG  CLOUDY    72  67  86 CALM      29.97R
ROCKSPRINGS    NOT AVBL
HONDO          PTCLDY    82  63  52 NE6       29.90R
UVALDE         CLEAR     82  66  57 CALM      29.89R
DEL RIO        CLOUDY    85  66  53 NE10      29.87R
$$

SOUTHEAST TEXAS

CITY           SKY/WX    TMP DP  RH WIND       PRES   REMARKS
COLLEGE STN    CLOUDY    88  73  61 S10       29.89R
CALDWELL       NOT AVBL
CROCKETT       LGT RAIN  75  73  94 CALM      29.91F
BRENHAM        CLEAR     86  73  64 S10G16    29.90R
HUNTSVILLE     CLOUDY    86  73  65 S5        29.89F
CONROE         CLOUDY    84  74  71 S7        29.90S
HOUSTON BUSH   CLOUDY    85  72  65 S10       29.91S
HOUSTON HOBBY  CLOUDY    86  73  65 S8        29.91S
PERLAND        CLOUDY    86  74  67 S6        29.93S
WHARTON        CLOUDY    81  73  76 SE6       29.93R
$$

THE UPPER TEXAS COAST

CITY           SKY/WX    TMP DP  RH WIND       PRES   REMARKS
ORANGE         CLOUDY    80  77  92 SW3       29.92F
PORT ARTHUR    CLOUDY    80  75  84 SW6       29.90F
GALVESTON      CLOUDY    85  76  74 S10       29.94R
ANGLETON       CLOUDY    83  76  79 S7        29.93R
BAY CITY       PTCLDY    80  76  85 S6        29.93R
$$

TEXAS COASTAL BEND, RIO GRANDE PLAINS DEEP SOUTH TEXAS

CITY           SKY/WX    TMP DP  RH WIND       PRES   REMARKS
VICTORIA       MOCLDY    83  74  74 S10       29.92R
BEEVILLE       FAIR      84  76  76 S14G21    29.90R
ROCKPORT       CLEAR     84  76  76 S14G23    29.91R
PORT ARANSAS   MOCLDY    84  77  79 S15G21    29.92R
PORT LAVACA    CLEAR     81  74  81 S8        29.91R
CORPUS CHRISTI PTCLDY    83  76  79 S13       29.90R
KINGSVILLE NAS CLEAR     84  79  85 SE17      29.89R
COTULLA        CLOUDY    93  60  33 SE12      29.84R
LAREDO         CLEAR     93  70  46 SE15        N/A
BROWNSVILLE    CLEAR     82  77  84 SE13      29.91R
PORT ISABEL    CLEAR     84  77  79 SE16      29.90R
HEBBRONVILLE   CLEAR     87  64  45 S16G22    29.89R
MCALLEN        CLEAR     86  75  69 SE17G28   29.88R
WESLACO        CLEAR     84  74  73 S13G23    29.88R
FALFURRIAS     CLEAR     87  69  56 SE8       29.88R
EDINBURG       CLEAR     86  73  64 SE12G24   29.88R
$$



USA.gov is the U.S. government's official web portal to all federal, state and local government web resources and services.